RH
22 27 27 29 32 37 40 42 46 49 53 55 56 53 51 43 36 33 31 33 37 40 34 30 29 27 23 21 20 19 18 17
23 25 25 32 36 38 42 47 52 59 67 72 69 62 55 51 47 37 40 44 47 44 42 37 32 30 28 26 25 23 21 17
22 26 29 29 33 34 40 46 50 55 62 69 70 62 53 46 42 41 46 52 53 53 49 41 36 32 29 27 26 24 24 23
25 25 27 28 30 32 37 42 49 53 59 68 69 61 52 43 44 50 57 61 60 57 51 44 38 34 31 30 29 27 25 25
30 36 37 39 42 41 37 41 51 58 64 61 52 54 48 50 62 68 66 63 58 53 47 42 38 35 32 29 29 30 30 29
40 42 46 48 47 43 44 50 53 52 52 50 53 54 62 75 69 61 58 55 52 50 49 50 46 40 35 34 32 30 30 32
45 47 50 54 52 52 57 61 61 59 62 59 60 76 85 74 61 57 58 58 60 58 56 55 52 53 54 48 40 36 31 28
52 53 57 62 64 66 70 70 67 65 67 64 66 86 81 78 75 63 66 73 63 70 67 60 57 57 52 47 43 38 33 28
53 56 64 71 71 73 77 77 69 67 75 72 92 91 93 76 92 80 85 60 67 75 61 52 46 42 38 34 29 26 23 23
58 60 67 73 72 72 72 77 79 82 86 97 97 96 96 96 92 84 69 64 78 63 55 45 41 35 29 28 25 23 18 16
64 64 64 66 67 68 71 80 88 92 97 97 96 96 96 95 94 89 93 80 67 56 47 38 26 20 16 14 14 14 18 21
62 64 70 76 75 73 70 73 85 93 97 97 96 96 95 94 96 93 78 70 52 38 26 18 14 16 20 23 23 23 24 24
74 85 82 74 72 80 83 82 88 95 97 96 96 95 94 95 92 85 63 52 38 28 20 18 24 23 23 25 24 23 24 25
87 98 78 71 68 74 82 98 96 96 96 95 95 95 95 97 88 67 60 43 34 24 19 25 24 24 28 27 23 22 21 19
85 71 74 69 71 79 95 99 96 95 95 96 95 95 97 81 74 73 51 37 25 18 21 24 24 26 26 25 26 26 31 38
79 78 74 76 79 84 100 97 94 94 96 96 96 94 82 80 82 64 36 30 17 17 22 24 25 28 28 30 37 48 53 59
86 88 86 82 90 97 98 100 97 97 99 96 94 90 89 90 78 39 30 17 14 17 21 26 26 28 34 50 60 63 69 75
95 89 84 84 96 100 99 96 98 98 95 92 100 97 93 89 66 29 19 12 15 19 28 28 29 40 61 75 77 81 89 92
92 91 88 94 98 97 96 97 96 94 93 98 96 96 88 88 36 23 13 14 25 32 28 33 50 65 81 83 90 99 99 95
Wind_Speed
20 20 22 24 25 25 27 27 28 28 28 29 30 31 32 32 32 31 30 32 35 38 34 33 35 34 33 31 30 30 30 31
21 25 27 26 26 27 29 30 30 31 30 30 31 33 33 33 33 32 33 35 36 36 37 36 37 38 37 36 35 34 33 35
21 22 23 27 29 31 32 32 33 33 33 33 33 33 34 35 36 38 38 36 36 39 41 40 38 36 38 37 36 35 36 37
18 20 23 25 27 29 31 34 34 35 35 34 33 33 34 36 39 40 43 40 42 44 42 41 41 40 36 33 32 32 34 35
19 21 26 30 32 32 30 31 33 33 31 31 30 31 32 36 38 40 40 44 44 43 42 41 39 37 36 35 31 30 32 33
24 30 31 31 29 26 24 27 31 32 29 29 28 31 35 38 41 41 41 41 42 42 42 42 41 40 39 38 36 33 31 34
25 28 26 27 27 31 35 35 34 33 32 31 31 34 38 40 40 39 42 42 43 44 45 45 45 44 43 43 42 42 39 38
26 27 23 26 29 30 31 32 32 35 34 35 37 39 38 39 40 42 43 45 47 47 48 48 48 47 46 45 45 45 45 44
32 28 25 28 32 31 31 32 32 35 37 40 42 41 39 41 42 44 47 47 50 51 50 50 49 47 46 45 46 47 48 49
36 32 29 32 35 35 32 32 35 37 39 42 42 42 42 43 41 45 48 51 54 51 51 51 49 48 46 46 48 49 48 47
36 38 38 38 39 38 36 33 36 39 43 42 43 43 40 41 41 48 51 51 50 50 49 48 47 46 46 45 46 46 45 44
40 39 38 42 44 43 37 35 36 38 42 42 41 39 38 41 48 47 47 49 47 47 46 46 46 45 44 44 44 44 44 45
45 47 48 47 45 44 43 39 34 37 41 39 40 39 44 43 42 45 46 46 46 46 46 46 45 44 45 46 47 46 46 46
48 46 50 43 42 43 45 43 34 36 38 39 44 39 38 40 43 44 46 47 47 46 47 46 46 46 46 48 48 48 49 49
52 49 45 44 42 43 43 41 34 36 39 42 37 36 39 39 43 45 47 46 47 46 46 46 46 47 48 48 49 51 52 52
47 49 45 43 40 39 39 38 39 41 39 37 34 35 37 41 44 48 48 46 45 45 46 46 47 48 49 49 51 52 53 52
53 52 44 40 36 35 37 38 40 40 35 33 31 35 39 42 45 48 46 46 44 45 45 47 48 48 49 50 49 48 46 46
54 43 40 38 33 34 34 39 40 30 29 28 33 37 41 42 47 47 46 44 44 45 46 48 48 50 48 46 42 42 42 41
45 45 42 38 34 34 37 38 26 25 23 29 36 39 42 44 48 46 44 45 45 45 46 46 49 46 41 37 35 36 37 37
Wind_Direction
257 266 276 280 282 283 280 279 278 278 278 279 279 281 281 282 284 286 289 293 301 306 302 301 301 298 295 292 288 284 279 274
262 271 278 280 284 286 283 279 278 279 280 280 280 279 279 281 283 283 289 296 302 301 299 297 295 293 292 289 286 284 280 277
275 280 285 289 288 287 282 277 275 275 277 279 278 278 279 281 283 287 294 297 295 295 294 293 290 287 287 285 284 282 280 278
294 295 295 293 294 289 283 280 278 277 278 279 277 276 277 279 285 294 299 297 295 294 292 290 291 289 286 286 285 280 275 274
301 308 300 296 297 295 296 288 284 283 284 281 277 272 275 281 286 289 288 291 291 292 293 292 291 293 292 291 287 282 277 272
290 295 302 298 295 291 293 294 293 288 286 276 270 271 276 283 287 290 292 290 290 293 299 302 303 300 298 296 292 285 274 269
294 297 297 299 290 289 294 295 291 286 290 281 280 282 289 291 291 291 291 295 299 302 303 304 302 301 300 297 294 291 285 276
311 311 305 298 301 301 297 297 288 282 284 282 281 288 288 288 290 293 296 296 299 302 301 300 298 296 293 289 288 286 284 281
321 320 308 301 304 303 287 287 282 278 280 277 280 281 281 283 286 290 290 292 296 298 297 295 293 292 290 286 282 280 280 281
322 321 319 309 308 308 297 287 282 279 277 275 277 278 278 278 282 283 288 289 293 295 295 294 293 290 287 284 282 281 281 281
319 317 316 311 308 308 302 294 282 277 276 277 277 276 276 278 281 285 287 291 294 295 296 295 294 293 292 291 289 288 286 282
317 312 310 308 306 304 301 296 283 276 272 275 276 277 278 281 286 290 292 296 299 299 299 299 299 298 296 293 290 288 284 281
320 319 314 310 308 301 298 294 279 271 269 270 270 275 280 288 292 295 298 301 302 303 304 303 302 301 298 296 294 290 286 282
320 318 317 315 313 307 301 292 273 266 266 267 278 284 290 292 297 299 303 305 305 304 304 302 301 301 299 297 294 290 287 282
321 322 318 316 312 305 299 289 268 265 269 280 283 288 293 296 297 303 305 304 304 302 301 300 300 299 298 295 293 290 287 284
322 325 318 313 308 303 298 283 272 275 284 280 288 295 294 296 301 306 306 305 304 302 301 300 300 300 297 296 293 289 285 282
319 320 314 311 303 299 299 286 282 285 281 288 293 292 297 299 304 309 308 307 303 304 302 302 303 300 299 297 292 287 283 280
316 320 316 308 297 292 285 285 290 279 288 295 292 294 298 300 308 311 309 306 306 306 305 305 304 302 302 297 293 286 283 282
320 318 315 306 297 287 285 289 277 292 296 291 292 296 301 304 310 311 310 310 310 310 308 307 306 305 302 297 290 286 283 283